Weather Roundup
Issued by NWS

Home | Current Version | Previous Version | Graphics & Text | Print | Product List | Glossary Off
Versions: 1 2 3 4 5 6 7 8 9 10 11 12 13 14 15 16 17 18 19 20 21 22 23 24 25 26 27 28 29 30 31 32 33 34 35 36 37 38 39 40 41 42 43 44 45 46 47 48 49 50

000
NZUS93 KARX 280810
HRRWXR

CURRENT HOURLY OBSERVATIONS ACROSS
MUCH OF THE UPPER MISSISSIPPI VALLEY
NATIONAL WEATHER SERVICE LA CROSSE WI
300 AM CDT TUE JUL 28 2015


...SOUTHEAST MINNESOTA...


CITY           SKY/WX    TMP DP  RH WIND       PRES   REMARKS
ROCHESTER      CLEAR     70  69  97 SE9       29.92F FOG
ROCHESTER/MAYO FAIR      72  72 100 SE8       29.91F
WINONA         CLEAR     73  72  94 SE7       29.92S
AUSTIN         CLEAR     73  70  88 SE7       29.90F
ALBERT LEA     PTCLDY    73  72  94 S14       29.88F
DODGE CENTER   PTCLDY    70  68  94 SE8       29.90F FOG
PRESTON        CLEAR     71  68  91 SE6       29.94S
OWATONNA       CLEAR     73  70  88 SE12G21   29.88F
FARIBAULT      NOT AVBL
$$

...ELSEWHERE IN MINNESOTA...


CITY           SKY/WX    TMP DP  RH WIND       PRES   REMARKS
MINNEAPOLIS    PTCLDY    75  70  84 SE9       29.86F
INTNL FALLS    CLEAR     69  65  86 E5        29.83F
DULUTH         CLEAR     73  65  75 S10       29.90F
RED WING       PTCLDY    75  70  83 SE9       29.87F
REDWOOD FALLS  CLOUDY    72  66  81 SE14      29.76F
MANKATO        CLEAR     73  68  83 SE13      29.83F
WORTHINGTON    CLOUDY    72  64  78 S17G23    29.79F
FAIRMONT       CLOUDY    72  63  73 S14       29.84S
$$

...SOUTHWEST WISCONSIN...


CITY           SKY/WX    TMP DP  RH WIND       PRES   REMARKS
LA CROSSE      CLEAR     73  68  84 SE7       29.93F
PRAIRIE DU CHI CLEAR     71  67  87 E7        29.94F
BOSCOBEL       CLEAR     68  66  93 CALM      29.97F
LONE ROCK      CLEAR     67  63  87 E3        29.98F
PLATTEVILLE    CLEAR     68  65  90 E8        29.98F
FORT MC COY    CLEAR     69  62  79 E6        29.96F
CAMP DOUGLAS   CLEAR     63  63 100 SE3       29.97F
VIROQUA        FAIR      69  68  98 SE9       29.98F
WIS DELLS      CLEAR     70  60  72 S5        29.99F
$$

...ELSEWHERE IN WISCONSIN...


CITY           SKY/WX    TMP DP  RH WIND       PRES   REMARKS
MILWAUKEE      PTCLDY    69  63  81 NW5       30.02F
MADISON        CLEAR     70  62  76 SE3       30.00S
GREEN BAY      CLEAR     61  59  93 CALM      30.02S FOG
EAU CLAIRE     CLEAR     72  66  81 SE9       29.92F
BLACK RVR FLS  FAIR      70  67  89 CALM      29.95F
MEDFORD        CLEAR     66  62  86 SE5       30.00S
WAUSAU         CLEAR     65  62  90 E7        29.99F
WIS RAPIDS     CLEAR     69  61  75 SE6       30.00F
MARSHFIELD     CLEAR     69  60  73 S6        29.99F
RICE LAKE      CLEAR     71  65  83 SE9       29.93F
$$

...NORTHEAST IOWA...


CITY           SKY/WX    TMP DP  RH WIND       PRES   REMARKS
DECORAH        CLEAR     70  70 100 SE7       29.94S
MASON CITY     CLEAR     71  71 100 SE10      29.91F
CHARLES CITY   MOCLDY    72  72 100 SE6       29.93S FOG
OELWEIN        CLEAR     72  72 100 SE8       29.94F
$$

...ELSEWHERE IN IOWA...


CITY           SKY/WX    TMP DP  RH WIND       PRES   REMARKS
DES MOINES     MOCLDY    74  70  87 SE7       29.87F
IOWA CITY      MOCLDY    72  70  93 SE6       29.94F
FORT DODGE     CLOUDY    72  66  83 SE5       29.88S
$$

...NORTHERN ILLINOIS...


CITY           SKY/WX    TMP DP  RH WIND       PRES   REMARKS
CHICAGO-OHARE  PTCLDY    71  66  84 N6        29.99F
CHICAGO-MIDWAY PTCLDY    76  66  71 E5        29.99S
MOLINE         CLEAR     72  69  90 E6        29.95S
ROCKFORD       PTCLDY    70  63  78 E5        30.01S
PEORIA         CLEAR     77  71  82 E5        29.96F
$$

NOTE: "FAIR" INDICATES FEW OR NO CLOUDS BELOW 12,000 FEET WITH NO
SIGNIFICANT WEATHER AND/OR OBSTRUCTIONS TO VISIBILITY. WIND
SPEEDS ARE IN MILES-PER-HOUR.



USA.gov is the U.S. government's official web portal to all federal, state and local government web resources and services.